Regional Weather Roundup
Issued by NWS

Home | Current Version | Previous Version | Graphics & Text | Print | Product List | Glossary On
Versions: 1 2 3 4 5 6 7 8 9 10 11 12 13 14 15 16 17 18 19 20 21 22 23 24 25 26 27 28 29 30 31 32 33 34 35 36 37 38 39 40 41 42 43 44 45 46 47 48 49 50
000
ASUS43 KLSX 230507
RWRMO

WEATHER SUMMARY FOR MISSOURI
NATIONAL WEATHER SERVICE SPRINGFIELD MO
1200 AM CDT TUE SEP 23 2014

NOTE: "FAIR" INDICATES FEW OR NO CLOUDS BELOW 12,000 FEET WITH NO
       SIGNIFICANT WEATHER AND/OR OBSTRUCTIONS TO VISIBILITY.
       CURRENT SKY AND/OR WEATHER CONDITIONS ARE NOT AVAILABLE FOR
       CHILLICOTHE AND FARMINGTON.

MOZ001>031-035>038-043-044-053-054-230600-
...NORTHERN AND WESTERN MISSOURI...

CITY           SKY/WX    TMP DP  RH WIND       PRES   REMARKS
KANSAS CTY INT PTCLDY    58  52  80 S7        30.23S
KANSAS C DTWN  PTCLDY    62  51  67 S6        30.22S
LEE`S SUMMIT   PTCLDY    61  51  70 SE5       30.23F
ST JOSEPH      PTCLDY    53  51  93 W3        30.23S
CHILLICOTHE      N/A     54  51  90 CALM      30.25F
KIRKSVILLE     PTCLDY    51  32  48 CALM      30.26S

$$
MOZ066>068-077>081-088>096-101>105-230600-
...SOUTHWEST MISSOURI...

CITY           SKY/WX    TMP DP  RH WIND       PRES   REMARKS
SPRINGFIELD    PTCLDY    56  49  77 CALM      30.24S
JOPLIN         PTCLDY    59  52  77 E6        30.23S

$$
MOZ032>034-039>042-045>050-055>058-069>072-230600-
...CENTRAL MISSOURI...

CITY           SKY/WX    TMP DP  RH WIND       PRES   REMARKS
COLUMBIA       PTCLDY    56  49  77 E7        30.25F
JEFFERSON CITY CLEAR     51  49  92 CALM      30.25F
ROLLA          CLEAR     55  45  68 E8        30.25S
SEDALIA        PTCLDY    57  51  80 SE5       30.24F
WHITEMAN AFB   CLEAR     55  52  87 CALM      30.23S
OSAGE BEACH    PTCLDY    52  48  87 CALM      30.25S

$$
MOZ051-052-059>065-230600-
...EAST CENTRAL MISSOURI...

CITY           SKY/WX    TMP DP  RH WIND       PRES   REMARKS
ST LOUIS INTL  PTCLDY    58  50  75 CALM      30.26F
SPIRIT OF STL  CLEAR     50  49  96 CALM      30.25F
ST CHARLES     CLEAR     50  48  93 CALM      30.25F

$$
MOZ072>076-082>087-097>100-106>115-230600-
...SOUTH CENTRAL AND SOUTHEAST MISSOURI...

CITY           SKY/WX    TMP DP  RH WIND       PRES   REMARKS
CAPE GIRARDEAU CLEAR     48  46  93 CALM      30.25S
FARMINGTON     CLEAR     48  46  93 CALM      30.28S
POPLAR BLUFF   CLEAR     51  48  89 N3        30.24S
WEST PLAINS    CLEAR     50  48  93 CALM      30.27S

$$


USA.gov is the U.S. government's official web portal to all federal, state and local government web resources and services.